KG1ZR Weather Reports


Display with metric or nautical units.
time (UTC)temp
F
wind
direction
speed
MPH
gust
MPH
rain 1hr
in
rain 24hr
in
rain mn
in
humidity
%
barometer
mb
20260904203904 77 296 0.0 3.0 0.00 0.00 0.00 72 1006.5
20260904202904 77 50 0.0 3.0 0.00 0.00 0.00 69 1006.4
20260904201904 78 63 1.0 3.0 0.00 0.00 0.00 67 1006.4
20260904200904 78 242 0.0 2.0 0.00 0.00 0.00 64 1006.4
20260904195904 76 332 0.0 1.0 0.00 0.00 0.00 70 1006.5
20260904194904 76 42 0.0 1.0 0.00 0.00 0.00 72 1006.5
20260904193904 75 42 0.0 6.0 0.00 0.00 0.00 74 1006.6
20260904192904 75 260 3.0 7.0 0.00 0.00 0.00 69 1006.6
20260904191904 74 45 2.0 7.0 0.00 0.00 0.00 72 1006.5
20260904190904 73 44 1.0 7.0 0.00 0.00 0.00 71 1006.6
20260904185904 74 57 2.0 7.0 0.00 0.00 0.00 70 1006.6
20260904184904 76 13 3.0 8.0 0.00 0.00 0.00 68 1006.6
20260904183904 78 39 1.0 6.0 0.00 0.00 0.00 66 1006.5
20260904182903 78 259 1.0 4.0 0.00 0.00 0.00 69 1006.5
20260904181904 78 257 1.0 7.0 0.00 0.00 0.00 70 1006.6
20260904181338 78 294 1.0 8.0 0.00 0.00 0.00 68 1006.5
20260904175904 78 228 2.0 8.0 0.00 0.00 0.00 66 1006.6
20260904174905 77 0 2.0 5.0 0.00 0.00 0.00 71 1006.7
20260904173904 78 252 3.0 8.0 0.00 0.00 0.00 66 1006.8
20260904173825 78 282 2.0 7.0 0.00 0.00 0.00 68 1006.9
20260904171905 78 200 3.0 8.0 0.00 0.00 0.00 69 1006.9
20260904170904 77 278 3.0 8.0 0.00 0.00 0.00 71 1007.1
20260904165904 78 248 2.0 9.0 0.00 0.00 0.00 68 1007.2
20260904164904 77 240 4.0 9.0 0.00 0.00 0.00 70 1007.2
20260904163904 77 182 3.0 7.0 0.00 0.00 0.00 72 1007.3
20260904162904 76 221 3.0 5.0 0.00 0.00 0.00 69 1007.4
20260904161905 76 53 2.0 8.0 0.00 0.00 0.00 74 1007.6
20260904160905 76 320 3.0 8.0 0.00 0.00 0.00 73 1007.6
20260904155904 76 240 2.0 6.0 0.00 0.00 0.00 74 1007.8
20260904154905 75 355 2.0 6.0 0.00 0.00 0.00 74 1007.8
20260904153904 74 240 2.0 5.0 0.00 0.00 0.00 74 1007.9
20260904152904 74 269 2.0 6.0 0.00 0.00 0.00 73 1008.1
20260904151905 73 134 1.0 4.0 0.00 0.01 0.00 72 1008.2
20260904150905 74 300 1.0 9.0 0.00 0.01 0.00 70 1008.3
20260904145904 73 275 1.0 9.0 0.00 0.01 0.00 61 1008.3
20260904145346 72 284 1.0 5.0 0.00 0.01 0.00 51 1008.5
20260904143905 70 275 1.0 5.0 0.00 0.01 0.00 45 1008.5
20260904142904 69 330 1.0 5.0 0.00 0.01 0.00 46 1008.6
20260904141903 67 271 2.0 5.0 0.00 0.01 0.00 46 1008.5
20260904140905 66 189 0.0 3.0 0.00 0.01 0.00 47 1008.6
20260904135903 65 182 1.0 4.0 0.00 0.01 0.00 48 1008.7
20260904134904 65 189 1.0 4.0 0.00 0.01 0.00 48 1008.7
20260904133905 64 267 1.0 3.0 0.00 0.01 0.00 48 1008.8
20260904133344 64 256 1.0 3.0 0.00 0.01 0.00 49 1008.8
20260904131903 63 208 1.0 3.0 0.00 0.01 0.00 49 1008.9
20260904130904 63 285 2.0 4.0 0.00 0.01 0.00 49 1008.9
20260904130338 63 276 1.0 3.0 0.00 0.01 0.00 49 1008.9
20260904124859 62 173 1.0 3.0 0.00 0.01 0.00 49 1008.9
20260904123857 62 173 1.0 3.0 0.00 0.01 0.00 50 1008.9
20260904122858 62 194 1.0 2.0 0.00 0.01 0.00 50 1008.9
20260904121857 62 186 1.0 2.0 0.00 0.01 0.00 50 1008.9
20260904120857 61 36 0.0 2.0 0.00 0.03 0.00 50 1008.9
20260904115857 61 36 1.0 2.0 0.00 0.05 0.00 50 1008.7
20260904114851 61 36 1.0 3.0 0.00 0.08 0.00 50 1008.9
20260904113850 61 36 1.0 3.0 0.00 0.10 0.00 50 1008.8
20260904112849 61 280 0.0 1.0 0.00 0.13 0.00 50 1008.6
20260904111849 61 280 0.0 2.0 0.00 0.19 0.00 50 1008.6
20260904110849 61 280 0.0 3.0 0.00 0.22 0.00 50 1008.6
20260904105849 61 38 0.0 3.0 0.00 0.23 0.00 50 1008.5
20260904104849 61 273 0.0 1.0 0.00 0.23 0.00 50 1008.4
20260904103849 61 273 0.0 3.0 0.00 0.23 0.00 50 1008.3
20260904102850 61 259 1.0 3.0 0.00 0.25 0.00 50 1008.2
20260904101843 61 284 0.0 2.0 0.00 0.28 0.00 50 1008.3
20260904101319 61 284 1.0 2.0 0.00 0.30 0.00 50 1008.2
20260904095844 61 263 0.0 2.0 0.00 0.35 0.00 50 1008.4
20260904095314 61 263 0.0 4.0 0.00 0.38 0.00 50 1008.3
20260904093843 61 263 1.0 4.0 0.00 0.40 0.00 50 1008.3
20260904092843 61 266 2.0 6.0 0.00 0.42 0.00 50 1008.1
20260904091843 61 250 2.0 6.0 0.00 0.43 0.00 50 1008.3
20260904090843 61 296 1.0 4.0 0.00 0.44 0.00 50 1008.3
20260904085843 61 209 1.0 3.0 0.00 0.45 0.00 50 1008.1
20260904084843 60 205 0.0 2.0 0.00 0.45 0.00 50 1008.1
20260904083843 60 205 0.0 2.0 0.00 0.45 0.00 51 1008.2
20260904082844 60 205 0.0 2.0 0.00 0.46 0.00 51 1008.2
20260904081843 60 168 0.0 0.0 0.00 0.46 0.00 51 1008.1
20260904080844 60 168 0.0 0.0 0.00 0.46 0.00 51 1008.1
20260904075844 60 168 0.0 0.0 0.00 0.46 0.00 51 1008.1
20260904074843 60 168 0.0 0.0 0.00 0.46 0.00 51 1008.2
20260904073846 60 168 0.0 0.0 0.00 0.50 0.00 51 1008.3
20260904072837 60 168 0.0 0.0 0.00 0.51 0.00 51 1008.5
20260904071837 60 168 0.0 0.0 0.00 0.52 0.00 51 1008.5
20260904071315 60 168 0.0 0.0 0.00 0.53 0.00 51 1008.5
20260904065838 60 168 0.0 0.0 0.00 0.53 0.00 51 1008.6
20260904064839 60 260 0.0 0.0 0.00 0.53 0.00 51 1008.8
20260904063837 60 260 0.0 0.0 0.00 0.54 0.00 51 1008.9
20260904062837 59 260 0.0 0.0 0.00 0.54 0.00 52 1008.9
20260904061837 59 260 0.0 0.0 0.00 0.54 0.00 52 1008.9
20260904060836 59 260 0.0 0.0 0.00 0.54 0.00 52 1009.1
20260904055835 59 260 0.0 0.0 0.00 0.54 0.00 52 1009.3
20260904054835 59 260 0.0 0.0 0.00 0.54 0.00 52 1009.4
20260904053835 60 260 0.0 0.0 0.00 0.54 0.00 52 1009.5
20260904052834 60 260 0.0 0.0 0.00 0.54 0.00 52 1009.7
20260904051835 60 260 0.0 0.0 0.00 0.54 0.00 52 1009.8
20260904050835 60 260 0.0 0.0 0.00 0.54 0.00 52 1009.6
20260904045836 61 260 0.0 0.0 0.00 0.54 0.00 51 1009.7
20260904044833 61 260 0.0 0.0 0.00 0.54 0.00 51 1009.8
20260904043833 62 260 0.0 0.0 0.00 0.54 0.00 51 1009.8
20260904042833 62 260 0.0 0.0 0.00 0.54 0.00 51 1009.6
20260904041833 62 260 0.0 0.0 0.00 0.54 0.00 50 1009.8
20260904040833 62 271 0.0 0.0 0.00 0.54 0.00 50 1010.0
20260904035832 63 271 0.0 0.0 0.00 0.54 0.54 50 1010.1
20260904034833 63 271 0.0 0.0 0.00 0.54 0.54 50 1010.3
20260904033832 63 271 0.0 0.0 0.00 0.54 0.54 50 1010.3
20260904032830 63 271 0.0 0.0 0.00 0.54 0.54 50 1010.3
20260904031829 63 271 0.0 0.0 0.00 0.54 0.54 50 1010.3
20260904030830 63 271 0.0 0.0 0.00 0.54 0.54 50 1010.3
20260904025829 63 271 0.0 0.0 0.00 0.54 0.54 50 1010.4
20260904025321 63 271 0.0 0.0 0.00 0.54 0.54 50 1010.7
20260904023829 63 137 0.0 0.0 0.00 0.54 0.54 50 1010.9
20260904022828 63 92 0.0 0.0 0.00 0.54 0.54 50 1011.0
20260904022313 63 92 0.0 0.0 0.00 0.54 0.54 50 1011.0
20260904020829 63 92 0.0 0.0 0.00 0.54 0.54 50 1011.1
20260904015828 63 92 0.0 0.0 0.00 0.54 0.54 50 1011.1
20260904014832 64 92 0.0 0.0 0.00 0.54 0.54 51 1011.1
20260904014756 64 92 0.0 0.0 0.00 0.54 0.54 51 1010.9
20260904012828 63 92 0.0 0.0 0.00 0.54 0.54 51 1010.9
20260904012755 64 92 0.0 0.0 0.00 0.54 0.54 51 1010.7
20260904010828 64 92 0.0 0.0 0.00 0.54 0.54 51 1010.8
20260904010308 64 92 0.0 0.0 0.00 0.54 0.54 51 1010.8
20260904004829 64 92 0.0 0.0 0.00 0.54 0.54 52 1010.7
20260904003828 64 92 0.0 0.0 0.00 0.54 0.54 52 1010.8
20260904003300 64 92 0.0 0.0 0.00 0.54 0.54 52 1010.7
20260904001830 64 92 0.0 0.0 0.00 0.54 0.54 52 1011.0
20260904000829 64 92 0.0 0.0 0.00 0.54 0.54 53 1010.9
20260903235828 64 92 0.0 0.0 0.00 0.54 0.54 53 1010.8
20260903235322 64 92 0.0 0.0 0.00 0.54 0.54 53 1011.2
20260903233830 64 92 0.0 1.0 0.00 0.54 0.54 54 1011.2
20260903233317 64 92 0.0 1.0 0.00 0.54 0.54 55 1011.2
20260903232308 64 92 0.0 1.0 0.00 0.54 0.54 55 1011.0
20260903230829 64 92 0.0 1.0 0.00 0.54 0.54 56 1011.1
20260903225828 65 92 0.0 0.0 0.00 0.54 0.54 56 1011.1
20260903224830 65 92 0.0 0.0 0.00 0.54 0.54 56 1011.3
20260903223829 65 92 0.0 1.0 0.00 0.54 0.54 57 1011.3
20260903222829 65 92 0.0 1.0 0.00 0.54 0.54 57 1011.3
20260903221828 65 92 0.0 0.0 0.00 0.54 0.54 57 1011.4
20260903220829 65 92 0.0 0.0 0.00 0.54 0.54 57 1011.3
20260903220309 65 92 0.0 0.0 0.00 0.54 0.54 58 1011.3
20260903214828 65 92 0.0 2.0 0.00 0.54 0.54 58 1011.2
20260903213829 65 92 0.0 2.0 0.00 0.54 0.54 58 1011.3
20260903213306 65 92 0.0 2.0 0.00 0.54 0.54 58 1011.2
20260903212309 65 207 0.0 0.0 0.00 0.54 0.54 57 1011.4
20260903210829 65 207 0.0 0.0 0.00 0.54 0.54 56 1011.5
20260903205829 65 207 0.0 2.0 0.00 0.54 0.54 57 1011.5
20260903204829 65 207 1.0 3.0 0.00 0.54 0.54 58 1011.5
20260903204310 65 120 0.0 2.0 0.00 0.54 0.54 57 1011.6